Flag for Japan Weather past 2 weeks in Fukushima, Japan

Now
26 °F

Chilly.


Feels Like: 26 °F
Forecast: 20 / 36 °F
Wind: 1 mph from Northwest

Location: Wakamatsu

Current Time: Jan 30, 2015 at 8:24:28 AM

Latest Report: Jan 30, 2015 at 7:00 AM


Visibility: 13 mi

Pressure: 30.26 "Hg

Humidity: 92%

Dew point: 24 °F

Location of FukushimaLocation

Historic Weather in Fukushima — Graph

°F

Fukushima temperature yesterday

Maximum temperature yesterday: 34 °F (at 2:00 PM)
Minimum temperature yesterday: 27 °F (at 3:00 AM)
Average temperature yesterday: 30 °F

Past Weeks' High & Low Weather Summary

 TemperatureHumidityPressure
High42 °F (Jan 27, 1:00 PM)98% (Jan 23, 2:00 AM)30.52 "Hg (Jan 23, 2:00 AM)
Low12 °F (Jan 21, 7:00 AM)52% (Jan 20, 3:00 PM)29.64 "Hg (Jan 23, 3:00 AM)
Average31 °F83%30.11 "Hg
* Reported Jan 15 7:00 AM — Jan 30 7:00 AM, Fukushima, Weather by CustomWeather, © 2014

Note: Actual official high and low records may vary slightly from our data, if they occured in-between our weather recording intervals... More about our weather records

Advertising

Fukushima weather history for previous 24 hours

 ConditionsComfort  
Time TempWeatherWind HumidityBarometerVisibility
7:00 AM
Jan 30
26 °FChilly.1 mph92%30.26 "Hg12 mi
5:00 AM25 °FChilly.3 mph90%30.25 "Hg12 mi
4:00 AM25 °FCold.2 mph94%30.27 "Hg12 mi
3:00 AM26 °FChilly.1 mph92%30.27 "Hg12 mi
2:00 AM26 °FChilly.2 mph93%30.30 "Hg10 mi
1:00 AM26 °FChilly.1 mph92%30.31 "Hg12 mi
12:00 AM27 °FChilly.1 mph90%30.33 "Hg12 mi
11:00 PM
Jan 29
28 °FChilly.2 mph87%30.34 "Hg12 mi
10:00 PM28 °FChilly.2 mph88%30.37 "Hg12 mi
9:00 PM29 °FChilly.2 mph87%30.38 "Hg12 mi
8:00 PM29 °FChilly.2 mph87%30.38 "Hg12 mi
7:00 PM29 °FChilly.3 mph82%30.38 "Hg12 mi
6:00 PM31 °FChilly.3 mph79%30.39 "Hg12 mi
5:00 PM32 °FChilly.2 mph73%30.38 "Hg12 mi
4:00 PM33 °FChilly.3 mph68%30.36 "Hg12 mi
3:00 PM34 °FChilly.6 mph67%30.35 "Hg12 mi
2:00 PM34 °FLight snow. Cloudy.8 mph70%30.36 "Hg12 mi
1:00 PM34 °FLight snow. Cloudy.9 mph68%30.36 "Hg12 mi
11:00 AM32 °FLight snow. Cloudy.6 mph78%30.39 "Hg12 mi
10:00 AM31 °FLight snow. Cloudy.3 mph82%30.40 "Hg7 mi
9:00 AM30 °FLight snow. Cloudy.9 mph86%30.41 "Hg3 mi
8:00 AM29 °FLight snow. Cloudy.7 mph86%30.40 "Hg2 mi
Weather by CustomWeather, © 2014

See weather overviewHow to use our weather pages